Regional Weather Roundup
Issued by NWS Sioux Falls, SD

Home | Current Version | Previous Version | Graphics & Text | Print | Product List | Glossary Off
Versions: 1 2 3 4 5 6 7 8 9 10 11 12 13 14 15 16 17 18 19 20 21 22 23 24 25 26 27 28 29 30 31 32 33 34 35 36 37 38 39 40 41 42 43 44 45 46 47 48 49 50

000
ASUS43 KFSD 191702
RWRFSD

WEATHER ROUNDUP FOR SE SOUTH DAKOTA/SW MINNESOTA/NW IOWA
NATIONAL WEATHER SERVICE SIOUX FALLS SD
1200 PM CDT SUN APR 19 2015

NOTE: "FAIR" INDICATES FEW OR NO CLOUDS BELOW 12,000 FEET WITH NO
SIGNIFICANT WEATHER AND OR OBSTRUCTIONS TO VISIBILITY.


SDZ038>040-050-052>070-191800-
SOUTHEAST SOUTH DAKOTA

CITY           SKY/WX    TMP DP  RH WIND       PRES   REMARKS
BROOKINGS      CLOUDY    46  43  87 N23G31    29.78S
CHAMBERLAIN    NOT AVBL
HURON          CLOUDY    53  34  48 N25G37    29.84S
MADISON        CLOUDY    46  46 100 NW23G33   29.80S
MITCHELL       CLOUDY    52  35  52 N30G36    29.85S
SIOUX FALLS    CLOUDY    51  43  74 NW24      29.78R
WINNER         FAIR      53  29  39 N30G41    29.93F
YANKTON        CLOUDY    52  39  62 NW24G31   29.83S
$$

MNZ071-072-080-081-089-090-097-098-191800-
SOUTHWEST MINNESOTA

CITY           SKY/WX    TMP DP  RH WIND       PRES   REMARKS
FAIRMONT       CLOUDY    57  48  72 NW18      29.67F
JACKSON        CLOUDY    54  50  87 NW15      29.71S
LUVERNE        CLOUDY    50  45  81 NW18      29.77R
MARSHALL       CLOUDY    50  41  71 N20       29.73R
MONTEVIDEO     CLOUDY    50  50 100 N17G26    29.73S
PIPESTONE      CLOUDY    48  45  87 N14G26    29.76R
REDWOOD FALLS  CLOUDY    53  48  83 W20G28    29.69S
TRACY          CLOUDY    51  47  85 NW21G28   29.73S
WORTHINGTON    CLOUDY    54  45  71 NW23      29.72F
$$

IAZ001>003-012>014-020>022-031-032-NEZ013-014-SDZ071-191800-
NORTHWEST IOWA

CITY           SKY/WX    TMP DP  RH WIND       PRES   REMARKS
DENISON        RAIN      54  54 100 NW14      29.70R
ESTHERVILLE    CLOUDY    55  51  86 NW20      29.69S
SIOUX CITY     CLOUDY    50  45  83 NW28G35   29.76R
SPENCER        CLOUDY    57  53  86 N18       29.70S
$$

ABBREVIATIONS USED IN REMARKS
   TC - TEMPERATURE IN CELSIUS
  WCI - WIND CHILL INDEX
   HX - HEAT INDEX
  VSB - VISIBILITY




USA.gov is the U.S. government's official web portal to all federal, state and local government web resources and services.